カタログに戻る

STARLINK-3370

運用中通信VLEO
NORAD 51127·PAYLOAD·🇺🇸 United States

打ち上げ Jan 19, 2022 から Cape Canaveral Space Force Station

Loading…

次のパス (今後24時間)

TLE

最新Source: CelesTrak SupGP

元期: Sep 14, 2026, 21:17 UTC

1 51127C 22005Z   26257.88729167 -.00045087  00000+0 -14497-2 0  2574
2 51127  53.1565 155.9200 0001285  93.7456 324.9174 15.31728004    17

AllMySatでSTARLINK-3370をリアルタイム追跡

Download on the App Store